Location: Hemaruka
(51.7801°N, 111.0917°W)
Time: 09:43:46
(UTC+00:00)

NOAA 15 - Pass Details

Date: 08 December 2023
Orbit: 797 x 810 km, 98.6° (Epoch: 02 March)

Event Time Altitude Azimuth Distance (km) Brightness Sun altitude
Rises 03:02:14 0° 194° (SSW) 3,316 7.9 -33.9°
Reaches altitude 10° 03:04:50 10° 205° (SSW) 2,388 7.2 -34.3°
Maximum altitude 03:09:28 31° 266° (W) 1,402 6.3 -35.0°
Drops below altitude 10° 03:14:07 10° 327° (NNW) 2,397 7.5 -35.8°
Sets 03:16:45 0° 338° (NNW) 3,330 8.2 -36.2°
